Find Starlink 34451

NORAD ID: 64433 Int'l Des: 2025-129 Owner: SPXS Country: US Constellation: starlink operational
LEOCIRCULAR

实时位置

正在加载3D地球...

关于 Starlink 34451

正在加载描述...

即将过境

Passes for default location (London). Set your location on the main map for personalized predictions.

高度历史

Loading altitude history...

两行轨道根数

1 64433U 25129X 26104.87397818 .00680362 00000-0 50531-1 0 9993
2 64433 70.0058 343.3678 0011715 253.5572 106.4301 15.00252505 46640
Epoch: Apr 14, 2026 • Age: 9 hours

当前状态

高度 564.9 km
速度 7.58 km/s
星下点 -6.21°S, 125.78°W
发射日期 Jun 17, 2025
运行时间 0.8 years
类型 internet

技术详情

分类 Payload
质量 575.00 kg
干质量 530.00 kg
总质量 575.00 kg
长度 0.30 m
直径 4.10 m
跨度 29.00 m
形状 Box + pan
制造商 SPXS
平台类型 Starlink V2MO
阶段状态 In Orbit
所有者/国家 SPXS/US

Most Searched